[[{"header":{"parameterUnit":"m.s-1","parameterCategory":1,"la1":30.2991,"la2":30.254,"lo1":-89.0895,"lo2":-89.0444,"dy":0.0017,"dx":0.0017,"nx":28,"ny":28,"refTime":"2023-09-19T21:00:00:Z","depth":0,"parameterNumber":2,"parameterNumberName":"U-component_of_WINDS"},"data":[0,0,0,0,0,0,0,0,0,0,0,0,0,0,0,0,0,0,0,0,0,0,0,0,0,0,0,0,0,0,0,0,0,0,0,0,0,0,0,0,0,0,0,0,0,0,0,0,0,0,0,0,0,0,0,0,0,0,-4.6307,-4.6309,0,-4.6488,-4.649,-4.6492,-4.6471,-4.6468,-4.6465,-4.6462,-4.6644,-4.6651,-4.6659,0,0,0,0,0,0,0,0,0,0,0,0,0,-4.5942,-4.5948,-4.6307,-4.6309,-4.6312,-4.6487,-4.649,-4.6492,-4.6471,-4.6468,-4.6464,-4.6461,-4.6641,-4.665,-4.6659,0,0,0,0,0,0,0,0,0,0,0,0,0,-4.6109,-4.5951,-4.6307,-4.6322,-4.6325,-4.6487,-4.649,-4.6493,-4.6472,-4.6467,-4.6463,-4.6459,-4.6638,-4.6649,-4.666,-4.6817,0,0,-4.6695,-4.67,0,0,0,0,0,0,0,0,-4.6099,-4.6122,-4.6318,-4.6321,-4.6325,-4.6452,-4.6428,-4.6601,-4.6473,-4.6416,-4.6462,-4.6457,-4.6583,-4.6599,-4.6642,-4.6825,-4.6833,-4.6696,-4.6703,-4.6708,-4.6711,0,0,0,0,0,0,0,-4.6088,-4.6114,-4.6378,-4.632,-4.6325,-4.632,-4.6339,-4.646,-4.6522,-4.6421,-4.642,-4.6442,-4.6585,-4.6631,-4.6646,-4.6836,-4.6696,-4.6706,-4.6713,-4.6717,-4.7159,-4.7164,0,0,0,0,0,0,-4.6073,-4.6105,-4.6373,-4.6384,-4.62,-4.633,-4.6351,-4.6416,-4.652,-4.6532,-4.6445,-4.644,-4.6614,-4.6633,-4.6653,-4.6844,-4.6708,-4.6718,-4.6725,-4.7154,-4.716,-4.7166,0,0,0,0,0,0,-4.6065,-4.6097,-4.6365,-4.6244,-4.6278,-4.6341,-4.6414,-4.6422,-4.6468,-4.6539,-4.6549,-4.6482,-4.6611,-4.6637,-4.6777,-4.685,-4.6723,-4.6734,-4.7148,-4.7156,-4.7163,-4.7228,0,0,0,0,0,0,-4.6055,-4.6094,-4.6155,-4.6246,-4.6285,-4.6487,-4.6418,-4.6428,-4.6488,-4.6483,-4.6576,-4.6587,-4.661,-4.676,-4.6788,-4.6863,-4.6742,-4.7142,-4.7152,-4.7161,-4.7219,-4.7237,-4.7251,0,0,0,0,0,-4.6042,-4.6164,-4.6158,-4.619,-4.6362,-4.6492,-4.6514,-4.6538,-4.6494,-4.6555,-4.6601,-4.6584,-4.6838,-4.6775,-4.6806,-4.6886,-4.7138,-4.7149,-4.716,-4.7212,-4.7233,-4.7251,0,0,0,0,0,0,-4.6078,-4.6176,-4.617,-4.6326,-4.6401,-4.6488,-4.6565,-4.6559,-4.6647,-4.6639,-4.6665,-4.6686,-4.6828,-4.6871,-4.6799,-4.7044,-4.6982,-4.7,-4.7011,-4.7031,-4.7047,-4.7033,-4.6752,0,0,0,0,0,-4.6104,-4.6203,-4.6283,-4.6413,-4.6451,-4.6502,-4.6559,-4.6573,-4.665,-4.6681,-4.6737,-4.6813,-4.691,-4.6973,-4.7066,-4.7226,-4.7246,-4.7296,-4.7312,-4.7325,-4.734,-4.743,-4.7453,-4.7202,-4.7202,-4.7202,0,0,-4.6159,-4.6225,-4.6285,-4.6422,-4.6481,-4.6583,-4.6529,-4.6637,-4.6712,-4.6697,-4.6834,-4.6878,-4.6964,-4.7116,-4.7185,-4.7156,-4.7414,-4.7339,-4.7349,-4.7357,-4.7444,-4.7467,-4.7488,-4.721,-4.7209,-4.7207,0,0,-4.6311,-4.6371,-4.6487,-4.6548,-4.664,-4.6673,-4.6701,-4.679,-4.6819,-4.6957,-4.6949,-4.7039,-4.7204,-4.7267,-4.732,-4.75,-4.7488,-4.7529,-4.7612,-4.7699,-4.7719,-4.7737,-4.7802,-4.7825,-4.7544,-4.7544,-4.7544,0,-4.6367,-4.652,-4.6546,-4.6658,-4.6718,-4.6712,-4.6829,-4.6887,-4.7004,-4.7046,-4.7012,-4.7222,-4.7279,-4.7446,-4.749,-4.7533,-4.7566,-4.7518,-4.7714,-4.7732,-4.7749,-4.7811,-4.7836,-4.7548,-4.7548,-4.7548,-4.7547,0,-4.6585,-4.6692,-4.6774,-4.689,-4.696,-4.7073,-4.7116,-4.7184,-4.7192,-4.7229,-4.7371,-4.744,-4.7548,-4.7588,-4.7596,-4.7757,-4.7737,-4.7708,-4.7646,-4.7777,-4.7836,-4.786,-4.7555,-4.7553,-4.7552,-4.7551,0,0,-4.6763,-4.6894,-4.6924,-4.6977,-4.7079,-4.7162,-4.7275,-4.7383,-4.7441,-4.7522,-4.7618,-4.7761,-4.7736,-4.7797,-4.7812,-4.7888,-4.8028,-4.7851,-4.7853,-4.7882,-4.8212,-4.8233,-4.826,-4.8021,-4.8026,-4.8029,-4.8205,0,-4.6925,-4.7128,-4.7157,-4.7336,-4.7435,-4.7432,-4.7531,-4.7605,-4.7643,-4.7733,-4.7775,-4.7876,-4.7835,-4.7872,-4.7948,-4.7995,-4.8094,-4.7982,-4.8111,-4.8115,-4.809,-4.8291,-4.8313,-4.8475,-4.8228,-4.8232,-4.8235,0,-4.7141,-4.7232,-4.7421,-4.7513,-4.7555,-4.7644,-4.7746,-4.7832,-4.7915,-4.7938,-4.8008,-4.8014,-4.8132,-4.8066,-4.8229,-4.8153,-4.8207,-4.8239,-4.8246,-4.8258,-4.8183,-4.8309,-4.8527,-4.8552,-4.8271,-4.8268,-4.8266,0,-4.7253,-4.7422,-4.7558,-4.7603,-4.7713,-4.7776,-4.7824,-4.7903,-4.7967,-4.8056,-4.8097,-4.8198,-4.8254,-4.8332,-4.8365,-4.8314,-4.8528,-4.8463,-4.855,-4.855,-4.8595,-4.8592,-4.8825,-4.863,-4.8629,-4.8629,-4.8628,0,-4.7432,-4.7548,-4.761,-4.7693,-4.7824,-4.7856,-4.7984,-4.803,-4.8102,-4.8194,-4.8197,-4.8284,-4.8323,-4.8415,-4.8442,-4.8575,-4.8599,-4.8621,-4.8627,-4.8621,-4.8619,-4.8657,-4.8647,-4.8635,-4.8634,-4.8633,-4.8632,0,-4.7578,-4.7624,-4.7772,-4.7865,-4.7891,-4.7984,-4.8063,-4.8144,-4.8183,-4.83,-4.8329,-4.839,-4.8499,-4.8541,-4.8674,-4.8692,-4.8846,-4.8842,-4.8818,-4.882,-4.8904,-4.8896,-4.9171,-4.9209,-4.8988,-4.899,-4.8992,0,-4.7689,-4.7779,-4.7882,-4.7945,-4.7997,-4.8098,-4.8164,-4.8199,-4.8267,-4.8371,-4.844,-4.855,-4.8639,-4.8815,-4.8871,-4.8973,-4.8972,-4.9062,-4.8988,-4.898,-4.8975,-4.8969,-4.8979,-4.9075,-4.9077,-4.9079,-4.9081,0,-4.7881,-4.79,-4.7995,-4.81,-4.8179,-4.8263,-4.8344,-4.8395,-4.8443,-4.8519,-4.8633,-4.8703,-4.884,-4.895,-4.9056,-4.9105,-4.9102,-4.9104,-4.913,-4.9124,-4.9107,-4.9119,-4.8856,-4.9097,-4.9095,-4.9094,-4.9093,-4.9093,-4.8013,-4.8094,-4.818,-4.8287,-4.8353,-4.8429,-4.8511,-4.8562,-4.8657,-4.8773,-4.8788,-4.891,-4.8994,-4.9136,-4.919,-4.9286,-4.9262,-4.9299,-4.9308,-4.9317,-4.9324,-4.9092,-4.9305,-4.9305,-4.9305,-4.9304,-4.9304,0,-4.8206,-4.8262,-4.8361,-4.8476,-4.856,-4.8552,-4.8642,-4.8713,-4.8821,-4.89,-4.8989,-4.912,-4.9227,-4.9293,-4.94,-4.9465,-4.9466,-4.9492,-4.9487,-4.9499,-4.9338,-4.9306,-4.9489,-4.9489,-4.9489,-4.9489,-4.9489,-4.9489,-4.8316,-4.8453,-4.8483,-4.8653,-4.8708,-4.8829,-4.8882,-4.8953,-4.9016,-4.9164,-4.9253,-4.9296,-4.937,-4.9484,-4.9582,-4.9598,-4.9638,-4.9666,-4.9681,-4.9529,-4.951,-4.9492,-4.9461,-4.9674,-4.9675,-4.9833,-4.9835,-4.9836]},{"header":{"parameterUnit":"m.s-1","parameterCategory":1,"la1":30.2991,"la2":30.254,"lo1":-89.0895,"lo2":-89.0444,"dy":0.0017,"dx":0.0017,"nx":28,"ny":28,"refTime":"2023-09-19T21:00:00:Z","depth":0,"parameterNumber":3,"parameterNumberName":"V-component_of_WINDS"},"data":[0,0,0,0,0,0,0,0,0,0,0,0,0,0,0,0,0,0,0,0,0,0,0,0,0,0,0,0,0,0,0,0,0,0,0,0,0,0,0,0,0,0,0,0,0,0,0,0,0,0,0,0,0,0,0,0,0,0,-0.0079,-0.008,0,-0.0093,-0.0093,-0.0093,-0.0029,-0.0027,-0.0026,-0.0024,-0.0044,-0.0046,-0.0048,0,0,0,0,0,0,0,0,0,0,0,0,0,-0.0004,-0.0005,-0.0079,-0.008,-0.008,-0.0093,-0.0093,-0.0093,-0.003,-0.0027,-0.0025,-0.0023,-0.0043,-0.0045,-0.0048,0,0,0,0,0,0,0,0,0,0,0,0,0,-0.0029,-0.0006,-0.0079,-0.0049,-0.0047,-0.0093,-0.0093,-0.0093,-0.003,-0.0027,-0.0025,-0.0022,-0.0042,-0.0045,-0.0049,-0.0126,0,0,-0.0059,-0.006,0,0,0,0,0,0,0,0,-0.0028,-0.0032,-0.0054,-0.0052,-0.0049,-0.0056,-0.0073,-0.0104,-0.0031,-0.0037,-0.0024,-0.0021,-0.0051,-0.0053,-0.0062,-0.0127,-0.0127,-0.0059,-0.0061,-0.0063,-0.0064,0,0,0,0,0,0,0,-0.0026,-0.0031,-0.0085,-0.0054,-0.0051,-0.0037,-0.0037,-0.0079,-0.0059,-0.0036,-0.0031,-0.0033,-0.0049,-0.0059,-0.0062,-0.0128,-0.0059,-0.0062,-0.0064,-0.0066,-0.0257,-0.026,0,0,0,0,0,0,-0.0027,-0.003,-0.0084,-0.0085,-0.0031,-0.0041,-0.0041,-0.0057,-0.0059,-0.0056,-0.0036,-0.003,-0.0054,-0.0058,-0.0062,-0.0153,-0.0063,-0.0066,-0.0068,-0.0254,-0.0257,-0.0261,0,0,0,0,0,0,-0.0026,-0.0033,-0.0084,-0.0056,-0.0062,-0.0045,-0.0063,-0.0059,-0.0069,-0.0058,-0.0055,-0.005,-0.0052,-0.0058,-0.011,-0.0153,-0.0067,-0.0071,-0.025,-0.0255,-0.0259,-0.0336,0,0,0,0,0,0,-0.0024,-0.0033,-0.0061,-0.0057,-0.0063,-0.013,-0.0066,-0.0061,-0.0074,-0.0067,-0.007,-0.0068,-0.005,-0.0105,-0.0113,-0.0156,-0.0073,-0.0246,-0.0252,-0.0258,-0.033,-0.0343,-0.0354,0,0,0,0,0,-0.0022,-0.0083,-0.0063,-0.007,-0.0098,-0.0133,-0.0137,-0.0113,-0.0078,-0.0107,-0.01,-0.0068,-0.0146,-0.0111,-0.012,-0.0165,-0.0244,-0.0251,-0.0257,-0.0324,-0.034,-0.0354,0,0,0,0,0,0,-0.0095,-0.0082,-0.0059,-0.0121,-0.0128,-0.0122,-0.0158,-0.0131,-0.0149,-0.0143,-0.0114,-0.0115,-0.0173,-0.0174,-0.0135,-0.0239,-0.0189,-0.0198,-0.0237,-0.0252,-0.0264,-0.0264,-0.0076,0,0,0,0,0,-0.0118,-0.0146,-0.0134,-0.019,-0.0194,-0.0176,-0.019,-0.0171,-0.0178,-0.0181,-0.0178,-0.0188,-0.0214,-0.0233,-0.0257,-0.0328,-0.0329,-0.0363,-0.0375,-0.0385,-0.0394,-0.0433,-0.0449,-0.0283,-0.0283,-0.0283,0,0,-0.0167,-0.0163,-0.0183,-0.0204,-0.0208,-0.0239,-0.0179,-0.0214,-0.0238,-0.0187,-0.0236,-0.0235,-0.0243,-0.0306,-0.0333,-0.0308,-0.044,-0.0394,-0.0402,-0.0406,-0.0442,-0.0457,-0.0471,-0.0288,-0.0287,-0.0286,0,0,-0.0272,-0.0271,-0.0318,-0.0321,-0.0326,-0.0313,-0.0324,-0.0322,-0.0318,-0.0366,-0.0329,-0.0357,-0.0403,-0.0411,-0.0421,-0.0527,-0.0499,-0.0536,-0.06,-0.0638,-0.0651,-0.0663,-0.0702,-0.0716,-0.0544,-0.0544,-0.0544,0,-0.0332,-0.0376,-0.0346,-0.0383,-0.0395,-0.0347,-0.0396,-0.0401,-0.0415,-0.0424,-0.0395,-0.0451,-0.0454,-0.0518,-0.0544,-0.0553,-0.0566,-0.0537,-0.0651,-0.0662,-0.0673,-0.071,-0.0725,-0.0549,-0.0548,-0.0548,-0.0547,0,-0.0451,-0.0482,-0.0519,-0.0531,-0.0546,-0.0589,-0.0567,-0.0586,-0.0565,-0.0555,-0.0605,-0.0606,-0.063,-0.0643,-0.0624,-0.0704,-0.0689,-0.0656,-0.0605,-0.0694,-0.0728,-0.0742,-0.0555,-0.0553,-0.0552,-0.0551,0,0,-0.0605,-0.0598,-0.0613,-0.0617,-0.0618,-0.0642,-0.0683,-0.0704,-0.0722,-0.0732,-0.0767,-0.0806,-0.0775,-0.0786,-0.0767,-0.08,-0.0886,-0.0763,-0.0763,-0.0788,-0.0977,-0.1003,-0.102,-0.0866,-0.0868,-0.087,-0.0976,0,-0.0709,-0.0777,-0.0751,-0.0822,-0.0851,-0.0805,-0.0841,-0.0846,-0.0838,-0.0862,-0.0853,-0.0882,-0.0838,-0.0845,-0.0876,-0.0869,-0.0924,-0.0861,-0.09,-0.0902,-0.0902,-0.1038,-0.1066,-0.1166,-0.099,-0.0992,-0.0993,0,-0.0841,-0.0854,-0.0927,-0.0923,-0.0934,-0.0966,-0.0983,-0.1006,-0.1011,-0.1003,-0.1015,-0.0988,-0.1029,-0.0976,-0.1034,-0.0991,-0.1006,-0.1005,-0.1008,-0.1013,-0.0955,-0.1049,-0.1197,-0.1213,-0.1014,-0.1013,-0.1011,0,-0.0948,-0.0984,-0.1033,-0.1038,-0.1034,-0.1058,-0.1057,-0.1059,-0.1073,-0.1088,-0.1097,-0.1117,-0.1129,-0.1146,-0.1126,-0.1089,-0.1187,-0.1132,-0.1183,-0.1184,-0.1208,-0.1207,-0.1363,-0.1213,-0.1213,-0.1213,-0.1213,0,-0.1068,-0.1116,-0.1081,-0.1112,-0.1163,-0.1132,-0.1185,-0.1179,-0.1181,-0.1211,-0.1172,-0.1202,-0.1172,-0.1198,-0.1183,-0.1233,-0.1239,-0.1234,-0.123,-0.1239,-0.124,-0.125,-0.1244,-0.1217,-0.1216,-0.1215,-0.1214,0,-0.1199,-0.1177,-0.1227,-0.1218,-0.1216,-0.1255,-0.1248,-0.1276,-0.1264,-0.1302,-0.1309,-0.1291,-0.132,-0.1301,-0.133,-0.132,-0.1387,-0.1372,-0.1385,-0.1382,-0.1434,-0.143,-0.1604,-0.1626,-0.146,-0.1462,-0.1463,0,-0.1278,-0.1313,-0.1307,-0.1323,-0.1324,-0.135,-0.1364,-0.1334,-0.135,-0.1358,-0.1386,-0.1411,-0.143,-0.1479,-0.147,-0.1492,-0.1479,-0.1538,-0.1482,-0.149,-0.1482,-0.1481,-0.1485,-0.1551,-0.1553,-0.1554,-0.1555,0,-0.1422,-0.1409,-0.1429,-0.1446,-0.1462,-0.1474,-0.1483,-0.1499,-0.1469,-0.1489,-0.1517,-0.1531,-0.156,-0.1587,-0.1605,-0.1606,-0.1577,-0.1572,-0.1586,-0.1597,-0.1604,-0.1603,-0.1418,-0.1569,-0.1568,-0.1567,-0.1566,-0.1566,-0.1531,-0.156,-0.1559,-0.1583,-0.1586,-0.1595,-0.1621,-0.1611,-0.1634,-0.1654,-0.1635,-0.167,-0.1673,-0.1695,-0.1699,-0.1727,-0.1703,-0.1722,-0.1727,-0.1733,-0.1741,-0.1597,-0.173,-0.1729,-0.1729,-0.1729,-0.1728,0,-0.1674,-0.1671,-0.1693,-0.1706,-0.1725,-0.1692,-0.17,-0.1718,-0.1748,-0.1754,-0.1772,-0.1805,-0.183,-0.1821,-0.1844,-0.1867,-0.1854,-0.1874,-0.1874,-0.1875,-0.176,-0.1747,-0.1884,-0.1884,-0.1884,-0.1884,-0.1884,-0.1884,-0.1751,-0.1799,-0.1786,-0.1835,-0.1832,-0.1864,-0.1872,-0.188,-0.1884,-0.1922,-0.1941,-0.1934,-0.1935,-0.1956,-0.1978,-0.1975,-0.1986,-0.2012,-0.2004,-0.1898,-0.1883,-0.1868,-0.1856,-0.2014,-0.2014,-0.2117,-0.2118,-0.2118]}]]